IQ8VX-3 Weather Reports


time (UTC)temp
C
wind
direction
speed
KPH
gust
KPH
rain 1hr
cm
rain 24hr
cm
rain mn
cm
humidity
%
barometer
mb
20260507205658 17 0.0 0.0 0.00 0.00 0.00 86 1701.6
20260507203657 18 0.0 0.0 0.00 0.00 0.00 85 1701.9
20260507201657 18 0.0 0.0 0.00 0.00 0.00 84 1701.8
20260507195657 18 0.0 0.0 0.00 0.00 0.00 82 1702.0
20260507193656 18 0.0 0.0 0.00 0.00 0.00 81 1702.1
20260507191656 18 0.0 0.0 0.00 0.00 0.00 78 1702.9
20260507185656 18 0.0 0.0 0.00 0.00 0.00 76 1702.8
20260507183655 18 0.0 0.0 0.00 0.00 0.00 75 1702.3
20260507181655 18 0.0 0.0 0.00 0.00 0.00 74 1703.8
20260507175655 19 0.0 0.0 0.00 0.00 0.00 73 1704.7
20260507173654 19 0.0 0.0 0.00 0.00 0.00 72 1705.5
20260507171654 20 0.0 0.0 0.00 0.00 0.00 71 1706.3
20260507165654 20 0.0 0.0 0.00 0.00 0.00 68 1708.5
20260507163653 21 0.0 0.0 0.00 0.00 0.00 67 1708.8
20260507161653 22 0.0 0.0 0.00 0.00 0.00 64 1711.9
20260507155653 22 0.0 0.0 0.00 0.00 0.00 62 1713.2
20260507153652 22 0.0 0.0 0.00 0.00 0.00 61 1713.4
20260507151652 23 0.0 0.0 0.00 0.00 0.00 58 1716.0
20260507145652 23 0.0 0.0 0.00 0.00 0.00 57 1715.9
20260507143652 23 0.0 0.0 0.00 0.00 0.00 56 1716.6
20260507141651 23 0.0 0.0 0.00 0.00 0.00 55 1716.1
20260507135651 24 0.0 0.0 0.00 0.00 0.00 52 1717.4
20260507133651 24 0.0 0.0 0.00 0.00 0.00 50 1718.3
20260507131650 25 0.0 0.0 0.00 0.00 0.00 47 1720.9
20260507125650 26 0.0 0.0 0.00 0.00 0.00 45 1721.8
20260507123650 26 0.0 0.0 0.00 0.00 0.00 42 1722.7
20260507121649 26 0.0 0.0 0.00 0.00 0.00 38 1724.0
20260507115649 26 0.0 0.0 0.00 0.00 0.00 36 1722.8
20260507113649 27 0.0 0.0 0.00 0.00 0.00 37 1725.6
20260507111648 25 0.0 0.0 0.00 0.00 0.00 44 1719.5
20260507105648 23 0.0 0.0 0.00 0.00 0.00 53 1716.9
20260507103648 23 0.0 0.0 0.00 0.00 0.00 54 1714.9
20260507101648 23 0.0 0.0 0.00 0.00 0.00 55 1714.6
20260507095647 22 0.0 0.0 0.00 0.00 0.00 57 1712.3
20260507093647 22 0.0 0.0 0.00 0.00 0.00 62 1711.7
20260507091647 22 0.0 0.0 0.00 0.00 0.00 62 1712.0
20260507085646 21 0.0 0.0 0.00 0.00 0.00 62 1711.3
20260507083646 21 0.0 0.0 0.00 0.00 0.00 64 1710.0
20260507081646 21 0.0 0.0 0.00 0.00 0.00 69 1710.1
20260507075645 20 0.0 0.0 0.00 0.00 0.00 72 1708.3
20260507073645 20 0.0 0.0 0.00 0.00 0.00 72 1708.5
20260507071645 20 0.0 0.0 0.00 0.00 0.00 75 1706.5
20260507065644 18 0.0 0.0 0.00 0.00 0.00 81 1704.1
20260507063644 17 0.0 0.0 0.00 0.00 0.00 84 1700.7
20260507061644 17 0.0 0.0 0.00 0.00 0.00 86 1699.2
20260507055643 17 0.0 0.0 0.00 0.00 0.00 86 1699.1
20260507053643 17 0.0 0.0 0.00 0.00 0.00 86 1699.3
20260507051643 16 0.0 0.0 0.00 0.00 0.00 89 1697.6
20260507045642 16 0.0 0.0 0.00 0.00 0.00 92 1545.7
20260507043642 16 0.0 0.0 0.00 0.00 0.00 92 1392.6
20260507041642 16 0.0 0.0 0.00 0.00 0.00 93 1312.8
20260507035642 15 0.0 0.0 0.00 0.00 0.00 93 1350.6
20260507033641 15 0.0 0.0 0.00 0.00 0.00 93 1424.7
20260507031641 16 0.0 0.0 0.00 0.00 0.00 93 1313.7
20260507025641 16 0.0 0.0 0.00 0.00 0.00 94 1216.6
20260507023640 16 0.0 0.0 0.00 0.00 0.00 93 1339.8
20260507021640 16 0.0 0.0 0.00 0.00 0.00 92 1444.2
20260507015640 16 0.0 0.0 0.00 0.00 0.00 94 1027.5
20260507013639 16 0.0 0.0 0.00 0.00 0.00 98 677.1
20260507011639 16 0.0 0.0 0.00 0.00 0.00 99 605.9
20260507005639 16 0.0 0.0 0.00 0.00 0.00 99 616.0
20260507003638 16 0.0 0.0 0.00 0.00 0.00 99 684.2
20260507001638 16 0.0 0.0 0.00 0.00 0.00 98 846.8
20260506235638 16 0.0 0.0 0.00 0.00 0.00 97 1078.1
20260506233637 16 0.0 0.0 0.00 0.00 0.00 96 1299.8
20260506231637 16 0.0 0.0 0.00 0.00 0.00 96 1350.1
20260506225637 16 0.0 0.0 0.00 0.00 0.00 96 1446.5
20260506223636 16 0.0 0.0 0.00 0.00 0.00 94 1697.8
20260506221636 16 0.0 0.0 0.00 0.00 0.00 92 1697.8
20260506215636 16 0.0 0.0 0.00 0.00 0.00 88 1697.9
20260506213636 16 0.0 0.0 0.00 0.00 0.00 87 1697.6
20260506211635 16 0.0 0.0 0.00 0.00 0.00 87 1697.6